Temperature
16 16 16 16 16 16 16 16 16 15 15 15 15 15 15 15 15 15 15 15 15 15 15 15 15 15 15 15 15 15 15 15 15 15 15 15 15 15 15 15 15 15 15
16 16 16 16 15 15 15 15 15 15 15 15 15 15 15 15 15 15 15 15 15 15 15 15 15 15 15 15 15 15 15 15 15 15 15 15 15 15 15 15 15 15 15
16 16 15 15 15 15 15 15 15 15 15 15 15 15 15 15 15 15 15 15 15 15 15 15 15 14 15 15 15 15 15 15 15 15 15 15 15 14 14 14 14 14 14
15 15 15 15 15 15 15 15 15 15 15 15 15 14 14 14 14 14 14 14 14 14 14 14 14 14 14 14 14 14 14 14 14 14 14 14 14 14 14 14 14 14 14
15 15 15 15 15 15 15 14 14 14 14 14 14 14 14 14 14 14 14 14 14 14 14 14 14 14 14 14 14 14 14 14 14 14 14 14 14 14 14 14 14 14 14
15 15 15 15 15 15 14 14 14 14 14 14 14 14 14 14 14 14 14 14 14 14 14 14 14 14 14 14 14 14 14 14 14 14 13 13 13 13 13 13 13 13 13
15 15 15 15 14 14 14 14 14 14 14 14 14 13 13 13 13 13 13 13 13 13 13 14 14 14 14 14 13 13 13 13 13 13 13 13 13 13 13 13 13 13 13
15 15 15 15 14 14 14 14 14 14 13 13 13 13 13 13 13 13 13 13 13 13 13 13 13 13 13 13 13 13 13 13 13 13 13 13 13 13 13 13 13 13 13
15 15 15 14 14 14 14 14 14 14 13 13 13 13 13 12 12 12 12 12 13 13 13 13 13 13 13 13 13 13 13 13 13 12 12 12 12 12 12 12 12 12 12
15 14 14 14 14 14 14 14 14 14 13 13 13 13 13 13 12 12 12 12 12 12 12 12 12 12 13 13 12 12 12 13 13 12 12 12 12 12 12 12 12 12 12
14 14 14 14 14 14 14 14 13 13 13 13 13 13 13 13 12 12 11 12 12 12 12 12 12 12 12 12 12 12 12 12 12 12 12 12 12 12 12 12 11 11 11
14 14 14 14 14 14 14 13 13 13 13 13 13 13 13 13 12 12 12 11 11 11 12 12 12 12 12 12 12 12 12 12 12 12 12 12 11 11 11 11 11 11 11
14 14 14 14 14 14 13 13 13 13 13 13 13 12 12 12 12 12 12 11 11 11 11 11 11 11 12 12 12 11 11 11 12 11 11 11 11 11 11 11 11 11 11
14 14 14 14 13 13 13 13 13 13 13 13 12 12 12 12 12 12 12 12 11 11 11 11 11 11 11 11 11 11 11 11 11 11 11 11 11 11 11 11 11 11 11
14 13 13 13 13 13 13 13 13 13 12 12 12 12 12 12 12 12 12 12 11 11 10 11 11 11 11 11 11 11 11 11 11 11 11 11 11 11 11 11 11 10 10
13 13 13 13 13 13 13 13 12 12 12 12 12 12 12 12 12 12 11 11 11 11 11 11 11 11 11 11 11 11 11 11 11 11 10 10 10 10 10 10 10 10 10
13 13 13 13 13 13 12 12 12 12 12 12 12 12 12 11 11 11 11 11 11 11 11 11 10 10 10 10 10 10 10 10 10 10 10 10 10 10 10 10 10 10 10
13 13 13 13 12 12 12 12 12 12 12 12 12 11 11 11 11 11 11 11 11 11 11 11 10 10 10 10 10 10 10 10 10 10 10 10 10 10 10 9 9 9 9
13 12 12 12 12 12 12 12 12 12 11 11 11 11 11 11 11 11 11 11 10 10 10 10 10 10 10 10 10 10 10 10 10 10 10 10 9 9 9 9 9 9 9
12 12 12 12 12 12 12 12 11 11 11 11 11 11 11 11 11 11 10 10 10 10 10 10 10 10 10 10 10 10 10 10 9 9 9 9 9 9 9 9 9 9 9
12 12 12 12 12 12 11 11 11 11 11 11 11 11 11 10 10 10 10 10 10 10 10 10 10 10 10 10 10 10 9 9 9 9 9 9 9 9 9 9 9 9 9
12 12 12 12 11 11 11 11 11 11 11 11 11 10 10 10 10 10 10 10 10 10 10 10 10 10 10 9 9 9 9 9 9 9 9 9 9 9 9 8 8 8 8
12 11 11 11 11 11 11 11 11 11 10 10 10 10 10 10 10 10 10 9 9 9 9 9 9 9 9 9 9 9 9 9 9 9 9 9 9 8 8 8 8 8 8
11 11 11 11 11 11 10 10 10 10 10 10 10 10 10 10 10 9 9 9 9 9 9 9 9 9 9 9 9 9 9 9 8 8 8 8 8 8 8 8 8 8 8
11 11 11 11 11 10 10 10 10 10 10 10 10 9 9 9 9 9 9 9 9 9 9 9 9 9 9 8 8 8 8 8 8 8 8 8 8 8 8 8 8 7 7
11 11 10 10 10 10 10 10 10 10 10 9 9 9 9 9 9 9 9 9 9 9 9 9 8 8 8 8 8 8 8 8 8 8 8 8 8 7 7 7 7 7 7
Wind_Speed
2 2 2 3 3 4 4 3 4 5 5 5 5 6 5 5 5 5 5 6 6 6 6 6 8 8 9 9 8 9 8 8 8 8 8 8 8 7 7 6 5 4 3
4 2 2 3 3 4 4 4 5 4 4 4 4 5 5 5 5 5 4 4 5 5 5 6 7 8 8 8 8 8 8 8 8 8 8 8 8 8 7 7 6 5 4
5 4 3 2 3 5 5 5 6 5 4 4 4 4 4 4 5 4 4 3 4 4 5 5 6 7 7 7 7 7 7 8 8 8 9 9 8 8 8 7 7 6 5
6 5 3 3 4 6 5 4 4 4 4 4 3 3 3 3 3 4 4 4 4 3 4 5 5 6 6 6 6 7 7 7 8 8 8 8 8 8 7 7 7 6 6
7 6 3 3 5 4 3 4 4 4 4 3 3 3 3 2 2 3 4 4 4 4 4 4 4 5 5 5 5 6 7 7 7 7 7 7 7 7 7 6 7 6 6
6 6 4 4 5 4 4 4 4 3 3 3 4 4 3 2 3 3 3 3 4 4 4 4 4 3 4 4 5 5 5 6 6 5 5 6 6 6 6 6 6 6 5
5 5 4 3 4 4 3 4 4 4 3 2 4 3 4 4 4 3 3 3 3 4 4 4 4 4 3 3 4 4 4 4 4 4 4 4 4 4 4 4 4 4 4
4 5 4 3 3 4 4 3 3 3 1 2 2 2 2 4 4 4 3 3 3 3 3 3 4 4 4 3 3 4 3 3 3 3 3 3 3 3 3 3 3 3 3
3 4 4 3 3 3 3 3 3 4 2 0 1 3 3 1 1 3 3 3 3 3 2 3 3 3 4 4 4 3 3 2 2 2 2 2 2 2 2 2 2 3 3
3 4 4 4 3 3 3 2 2 2 3 1 0 1 2 3 2 1 3 3 3 3 2 2 2 2 3 3 4 3 3 2 1 1 1 1 2 1 1 2 1 2 2
2 3 4 4 3 2 2 2 2 2 2 3 2 1 2 2 2 2 1 2 3 2 2 1 2 2 2 3 3 3 2 1 1 1 1 0 0 0 1 1 1 1 2
1 2 4 3 3 2 2 2 2 3 2 2 2 2 2 2 2 2 2 1 1 2 2 1 1 1 2 2 2 3 2 1 1 1 1 1 1 1 1 1 1 2 2
1 2 2 3 2 2 2 2 2 2 2 2 2 2 2 2 3 3 2 1 1 2 2 2 1 0 1 2 2 2 2 1 1 1 0 1 1 1 1 1 1 1 2
2 2 2 3 3 2 2 2 2 1 2 2 2 2 1 1 2 3 3 3 1 1 1 2 2 1 1 2 3 3 1 1 1 0 0 1 1 1 1 1 1 2 2
2 2 2 2 2 2 2 3 2 2 2 1 1 1 1 1 1 2 3 4 4 2 2 3 2 2 2 2 3 3 2 2 1 1 0 0 1 1 1 1 1 2 2
2 2 2 2 2 2 2 2 2 2 2 1 1 2 1 1 1 1 2 2 2 3 2 2 3 2 1 2 3 3 3 2 1 1 1 1 1 1 1 1 1 2 2
3 3 2 2 2 2 2 2 2 2 2 1 1 2 1 1 1 1 2 2 2 2 2 2 1 1 0 1 1 2 2 2 1 1 1 1 1 1 2 2 2 2 2
3 3 3 2 2 2 2 3 3 3 3 2 2 2 1 1 1 1 1 1 1 2 3 2 1 1 1 2 2 1 1 1 1 2 2 1 1 2 2 2 2 2 2
3 3 3 3 2 2 2 3 3 3 3 3 3 3 3 2 1 1 1 1 1 1 1 2 1 1 1 1 1 0 1 1 1 1 1 1 1 2 1 1 1 2 2
4 3 3 3 3 2 2 2 2 3 3 2 3 3 3 3 3 3 2 2 2 2 1 2 1 1 1 1 1 1 0 1 1 1 1 1 2 1 1 1 2 2 2
4 4 3 2 2 2 2 2 2 3 2 2 2 3 3 4 4 3 2 2 2 2 2 2 1 1 1 1 2 1 1 0 1 1 0 1 1 2 2 3 4 4 3
3 3 2 2 2 2 2 3 3 3 3 3 2 2 2 2 3 3 3 4 4 3 3 3 2 2 3 3 2 2 1 1 1 1 1 1 0 1 3 4 5 5 5
3 3 2 2 3 3 3 3 4 3 3 3 3 2 2 2 1 1 2 2 2 3 5 5 4 4 4 4 4 3 2 2 3 2 1 2 1 2 4 5 6 5 5
4 4 3 3 2 3 2 3 3 3 2 2 3 3 3 2 2 2 2 1 0 1 2 3 4 5 4 4 5 4 4 2 1 1 1 1 2 2 3 4 5 5 4
3 4 3 3 3 3 2 2 3 2 2 2 2 3 3 3 4 4 4 2 1 1 1 3 4 4 4 4 4 3 3 2 1 2 1 2 2 2 2 2 4 4 4
4 4 3 3 3 4 3 3 2 2 2 2 1 2 4 4 4 5 4 4 2 2 1 0 1 1 1 2 4 3 4 3 2 2 2 2 1 0 2 2 2 3 4
Wind_Direction
90 71 64 73 84 89 90 82 80 77 76 77 82 89 88 90 93 88 88 89 95 99 102 111 113 112 106 101 99 98 96 93 94 92 90 84 77 75 75 75 83 91 92
101 95 82 76 80 89 88 90 90 86 80 76 65 71 85 91 89 87 85 87 90 95 97 108 114 113 108 107 103 98 96 94 90 88 84 80 77 74 70 67 69 71 78
104 100 93 76 79 92 92 84 79 80 79 71 59 61 74 84 84 80 84 84 84 88 97 104 112 112 110 106 104 102 99 96 94 91 85 81 76 73 69 65 62 61 63
105 96 89 83 95 97 91 86 81 80 70 66 60 48 51 69 77 77 79 82 85 85 88 94 107 112 110 107 107 106 105 101 97 91 85 80 75 72 68 66 62 60 57
105 99 96 93 97 93 88 93 81 91 84 70 65 52 39 44 56 65 63 75 90 91 89 87 100 115 113 113 113 110 107 102 97 92 89 85 78 72 66 65 60 56 55
108 102 99 98 97 92 86 93 95 79 83 79 75 53 33 28 45 50 58 63 77 90 93 82 82 96 107 113 117 114 110 106 100 96 93 89 82 76 66 63 59 54 51
113 111 105 103 100 106 111 113 109 91 76 86 78 43 19 24 40 32 45 61 55 66 84 90 84 78 79 99 109 110 113 112 108 99 93 91 87 80 74 69 61 56 50
118 120 119 120 114 111 103 108 114 112 108 93 108 95 37 7 6 19 29 54 44 59 67 80 81 86 81 77 92 102 98 115 119 110 99 93 90 83 74 67 61 58 51
123 124 123 119 122 126 134 141 138 137 147 8 107 130 131 191 323 349 6 23 29 40 48 68 81 89 93 89 88 90 93 96 113 114 111 101 93 83 77 68 57 51 42
125 131 128 125 126 130 140 158 148 144 141 155 34 68 133 151 146 341 338 351 11 30 30 60 70 90 95 103 102 96 94 90 103 103 108 112 104 101 81 70 56 42 31
121 130 132 129 129 133 142 135 131 137 147 156 155 128 87 76 105 137 241 319 348 344 354 30 78 89 101 118 122 112 111 104 92 72 48 24 91 111 90 84 53 28 24
126 129 133 132 138 138 147 147 138 139 146 143 145 144 151 153 167 149 177 240 296 311 329 349 48 89 121 133 140 123 125 123 138 137 40 15 7 30 70 50 7 13 10
178 192 148 144 147 151 151 142 137 144 148 146 162 167 174 183 165 155 151 186 252 299 326 326 310 166 146 140 152 144 126 143 166 198 345 6 37 45 47 41 6 356 353
194 188 162 152 147 138 134 128 130 153 143 154 165 158 156 193 168 160 161 157 139 331 322 283 306 280 198 167 175 171 150 172 175 203 82 49 39 35 37 18 359 355 353
183 172 158 143 140 133 126 127 130 144 132 138 154 143 140 178 163 155 156 160 157 180 263 266 273 283 231 188 184 167 160 156 176 176 170 92 12 352 347 335 358 355 348
168 155 151 141 139 138 136 130 133 141 123 135 141 121 112 147 139 136 150 157 162 168 210 246 242 258 245 212 191 177 160 138 188 206 216 226 250 307 326 315 307 316 325
155 154 158 158 160 158 149 143 156 150 142 155 145 140 140 145 127 133 140 144 156 152 186 264 275 279 207 212 152 180 170 141 184 252 260 258 257 277 293 318 316 311 317
168 166 162 154 155 156 159 160 175 173 169 175 185 163 186 149 127 151 153 170 180 170 169 212 265 259 243 224 194 177 167 180 223 266 253 245 275 281 279 294 315 314 310
168 162 155 157 165 167 173 177 175 183 186 191 190 188 199 167 172 188 182 183 194 179 163 177 232 252 266 242 157 155 72 36 266 267 256 260 286 290 277 291 314 307 303
167 169 170 175 176 177 179 180 179 179 187 201 204 202 201 193 196 191 188 186 167 150 144 149 192 245 260 260 137 155 321 343 293 319 310 308 302 292 278 293 295 291 297
167 174 167 173 180 181 193 184 187 185 182 197 216 213 208 206 205 196 187 180 162 152 151 156 183 197 242 188 203 193 186 258 307 295 299 315 327 328 308 291 285 283 291
155 153 171 179 194 226 222 191 181 183 184 192 208 224 222 212 211 199 184 181 174 172 181 178 192 201 229 213 190 181 163 140 282 276 157 275 311 263 283 279 280 282 283
162 166 187 196 220 243 225 198 187 175 179 194 200 209 229 224 200 189 194 179 187 189 188 182 185 205 211 208 181 181 188 189 223 238 149 261 282 269 284 282 280 280 282
178 188 205 213 225 251 233 196 182 171 179 205 209 209 205 211 208 175 161 148 199 243 212 192 196 208 212 202 189 188 188 179 267 283 156 225 266 269 293 296 285 280 289
188 197 202 208 219 246 238 185 164 172 181 228 241 224 203 205 214 183 160 162 190 298 240 196 202 205 203 197 178 137 134 133 249 271 210 186 246 284 291 290 297 293 293
198 199 207 214 217 234 241 212 180 175 192 223 244 244 230 220 214 189 174 175 199 248 254 267 248 250 200 191 184 176 173 169 183 248 240 182 212 235 310 297 300 303 300
Height
1526 1526 1525 1525 1525 1526 1526 1526 1526 1526 1527 1527 1527 1527 1527 1527 1527 1527 1527 1527 1527 1527 1527 1527 1527 1527 1527 1527 1528 1528 1528 1528 1528 1528 1528 1529 1529 1529 1528 1528 1528 1528 1528
1526 1526 1526 1526 1526 1526 1526 1526 1526 1526 1526 1527 1527 1527 1527 1527 1528 1528 1527 1527 1527 1527 1527 1527 1527 1527 1527 1528 1528 1528 1528 1528 1528 1528 1528 1528 1528 1528 1528 1528 1528 1528 1528
1527 1527 1526 1526 1526 1526 1526 1526 1526 1526 1526 1527 1527 1527 1527 1527 1527 1528 1528 1528 1527 1527 1527 1527 1527 1527 1527 1528 1528 1528 1528 1528 1528 1528 1528 1528 1528 1528 1528 1528 1528 1528 1528
1527 1527 1527 1526 1526 1526 1526 1526 1525 1526 1526 1526 1527 1527 1528 1528 1528 1528 1528 1528 1528 1527 1527 1527 1527 1527 1528 1528 1528 1528 1528 1528 1528 1528 1528 1528 1528 1528 1528 1527 1527 1528 1527
1527 1527 1527 1526 1526 1526 1526 1525 1525 1525 1526 1526 1527 1527 1527 1528 1528 1528 1528 1528 1528 1528 1527 1527 1527 1527 1528 1528 1528 1528 1528 1528 1528 1528 1528 1528 1528 1527 1527 1527 1527 1527 1527
1527 1527 1527 1526 1526 1526 1526 1526 1525 1526 1526 1526 1526 1527 1527 1528 1528 1528 1528 1528 1528 1528 1528 1527 1527 1527 1527 1528 1528 1528 1528 1528 1528 1528 1528 1528 1527 1527 1527 1527 1527 1527 1526
1527 1527 1526 1526 1526 1526 1526 1526 1526 1525 1526 1526 1526 1526 1527 1528 1528 1528 1528 1527 1528 1528 1528 1527 1527 1527 1527 1527 1528 1528 1528 1528 1528 1528 1528 1527 1527 1527 1526 1526 1526 1526 1526
1527 1526 1526 1526 1526 1525 1525 1525 1525 1525 1525 1526 1526 1526 1527 1529 1528 1528 1528 1527 1527 1528 1527 1527 1527 1527 1527 1527 1527 1527 1527 1528 1527 1527 1527 1527 1527 1526 1526 1526 1525 1525 1525
1526 1526 1526 1525 1525 1525 1525 1525 1525 1525 1525 1526 1526 1526 1526 1527 1527 1528 1527 1527 1527 1527 1527 1527 1527 1527 1527 1527 1527 1527 1527 1527 1527 1527 1526 1526 1526 1525 1525 1525 1524 1524 1524
1526 1525 1525 1525 1525 1524 1524 1524 1524 1524 1524 1525 1525 1525 1526 1526 1526 1527 1527 1527 1527 1526 1526 1526 1526 1526 1526 1526 1526 1526 1526 1526 1526 1526 1526 1525 1525 1524 1524 1523 1523 1523 1523
1524 1524 1524 1524 1524 1523 1523 1523 1523 1523 1524 1524 1524 1524 1525 1525 1525 1525 1525 1525 1525 1525 1525 1525 1525 1525 1525 1525 1525 1525 1525 1525 1525 1525 1524 1524 1524 1523 1523 1522 1522 1522 1522
1523 1523 1523 1523 1522 1522 1522 1522 1522 1522 1522 1523 1523 1523 1523 1523 1523 1524 1523 1523 1523 1524 1524 1524 1524 1524 1524 1524 1524 1524 1524 1524 1524 1524 1523 1523 1522 1522 1521 1521 1521 1521 1521
1521 1521 1521 1521 1521 1521 1521 1521 1521 1521 1521 1521 1521 1522 1522 1522 1522 1522 1522 1522 1522 1522 1523 1523 1523 1523 1523 1523 1523 1523 1523 1523 1522 1522 1522 1521 1520 1520 1520 1520 1520 1520 1519
1519 1519 1519 1519 1519 1519 1519 1519 1519 1519 1519 1520 1520 1520 1520 1520 1521 1521 1521 1521 1521 1521 1521 1521 1522 1522 1522 1522 1522 1522 1521 1521 1521 1521 1521 1520 1520 1519 1519 1519 1519 1519 1518
1517 1517 1518 1518 1518 1518 1518 1518 1518 1518 1518 1518 1518 1518 1518 1518 1519 1519 1519 1519 1520 1519 1519 1519 1520 1520 1520 1521 1520 1520 1520 1520 1520 1520 1520 1519 1519 1519 1518 1518 1518 1517 1517
1515 1515 1515 1516 1516 1516 1516 1516 1516 1516 1516 1516 1516 1516 1516 1516 1516 1517 1517 1517 1518 1518 1517 1517 1518 1518 1519 1519 1519 1519 1519 1519 1519 1518 1518 1518 1518 1518 1517 1517 1517 1516 1516
1512 1513 1513 1513 1513 1513 1513 1513 1513 1514 1514 1514 1514 1514 1514 1515 1514 1514 1515 1515 1515 1516 1515 1515 1516 1517 1517 1517 1517 1517 1517 1517 1517 1517 1517 1517 1516 1516 1516 1515 1515 1515 1514
1510 1510 1511 1511 1511 1511 1511 1511 1511 1511 1512 1512 1512 1512 1512 1513 1513 1512 1512 1512 1513 1513 1513 1513 1514 1514 1515 1515 1516 1516 1516 1516 1516 1516 1516 1515 1515 1514 1514 1514 1513 1513 1512
1508 1508 1508 1508 1508 1508 1508 1509 1509 1509 1509 1510 1510 1510 1510 1511 1510 1511 1511 1510 1511 1511 1511 1511 1511 1512 1513 1513 1513 1514 1514 1514 1514 1514 1514 1514 1513 1513 1512 1512 1512 1511 1510
1505 1505 1506 1506 1506 1506 1506 1506 1506 1507 1507 1507 1508 1508 1508 1509 1509 1509 1509 1509 1509 1509 1509 1509 1509 1510 1510 1511 1511 1511 1512 1512 1512 1512 1512 1512 1512 1511 1511 1510 1510 1509 1508
1502 1503 1503 1503 1503 1503 1503 1503 1504 1504 1504 1505 1505 1506 1506 1507 1507 1507 1507 1507 1507 1507 1507 1507 1507 1508 1508 1508 1509 1509 1510 1510 1510 1510 1510 1510 1510 1509 1509 1509 1508 1507 1507
1500 1500 1501 1501 1501 1501 1501 1501 1501 1501 1502 1502 1502 1503 1504 1504 1504 1504 1505 1505 1505 1505 1505 1505 1505 1505 1505 1506 1507 1507 1507 1508 1507 1509 1508 1508 1508 1507 1507 1507 1506 1505 1504
1497 1497 1498 1498 1498 1498 1499 1499 1499 1499 1499 1499 1500 1500 1501 1501 1502 1502 1502 1502 1502 1503 1503 1503 1503 1503 1503 1504 1504 1504 1505 1505 1505 1506 1506 1505 1505 1505 1505 1504 1504 1503 1502
1494 1495 1495 1495 1495 1496 1496 1496 1496 1497 1497 1497 1497 1498 1498 1499 1499 1499 1499 1499 1499 1500 1500 1500 1501 1501 1501 1501 1502 1502 1502 1503 1503 1503 1503 1502 1502 1502 1502 1502 1501 1501 1500
1491 1492 1492 1492 1493 1493 1493 1493 1494 1494 1494 1494 1494 1495 1495 1496 1496 1496 1496 1496 1497 1497 1497 1498 1498 1498 1498 1499 1499 1500 1499 1500 1500 1500 1501 1500 1500 1500 1499 1499 1499 1499 1498
1488 1489 1489 1489 1490 1490 1490 1490 1491 1491 1490 1490 1491 1491 1492 1493 1493 1493 1493 1493 1493 1494 1494 1494 1495 1495 1495 1495 1496 1496 1497 1497 1497 1497 1498 1498 1497 1497 1497 1496 1496 1496 1496